Total_Precipitation_Accumulation
0.51 0.40 0.49 0.55 0.49 0.52 0.71 0.74 0.63 0.35 0.26 0.26 0.24 0.24 0.22 0.20 0.18 0.16 0.19 0.21 0.24 0.28 0.32 0.40 0.52 0.66 0.80 0.80 0.71 0.72 0.81 0.95 1.12 1.17 1.12 1.13 1.25 1.41 1.47 1.50 1.51 1.50 1.52 1.46
0.50 0.34 0.38 0.41 0.34 0.37 0.43 0.41 0.38 0.27 0.29 0.26 0.22 0.22 0.21 0.20 0.20 0.19 0.21 0.23 0.26 0.29 0.30 0.36 0.51 0.69 0.81 0.86 0.84 0.83 0.94 1.04 1.16 1.25 1.23 1.21 1.26 1.42 1.56 1.61 1.65 1.61 1.52 1.46
0.73 0.42 0.62 0.64 0.38 0.35 0.36 0.34 0.34 0.34 0.30 0.24 0.23 0.25 0.27 0.25 0.25 0.26 0.24 0.25 0.29 0.31 0.32 0.38 0.55 0.72 0.79 0.85 0.90 0.95 1.03 1.06 1.09 1.17 1.23 1.21 1.18 1.31 1.48 1.55 1.56 1.56 1.50 1.41
1.04 0.79 1.13 0.59 0.29 0.27 0.29 0.32 0.36 0.37 0.31 0.26 0.25 0.27 0.29 0.30 0.30 0.29 0.28 0.30 0.32 0.34 0.34 0.38 0.49 0.59 0.63 0.73 0.82 0.89 0.95 1.02 1.05 1.08 1.15 1.21 1.19 1.16 1.20 1.29 1.40 1.39 1.32 1.26
1.37 1.01 0.62 0.28 0.24 0.31 0.36 0.42 0.41 0.38 0.32 0.27 0.23 0.22 0.27 0.28 0.28 0.28 0.28 0.31 0.32 0.33 0.36 0.40 0.45 0.49 0.53 0.62 0.73 0.81 0.85 0.88 0.92 0.95 1.00 1.05 1.11 1.08 1.04 1.06 1.12 1.18 1.18 1.14
1.48 1.10 0.58 0.35 0.24 0.25 0.32 0.48 0.40 0.34 0.33 0.31 0.30 0.46 0.42 0.33 0.26 0.24 0.23 0.25 0.26 0.27 0.31 0.37 0.44 0.44 0.50 0.57 0.62 0.73 0.75 0.72 0.71 0.74 0.83 0.84 0.84 0.87 0.86 0.91 0.96 0.97 1.04 1.06
1.24 0.98 0.44 0.24 0.18 0.22 0.51 0.65 0.42 0.36 0.34 0.35 0.44 0.54 0.43 0.32 0.27 0.24 0.21 0.20 0.20 0.20 0.26 0.34 0.43 0.44 0.48 0.52 0.54 0.62 0.66 0.61 0.58 0.61 0.67 0.69 0.71 0.73 0.73 0.76 0.82 0.86 0.92 0.97
0.94 1.07 0.57 0.24 0.24 0.45 0.62 0.41 0.36 0.36 0.33 0.34 0.33 0.28 0.27 0.25 0.24 0.22 0.21 0.20 0.19 0.20 0.25 0.31 0.37 0.42 0.45 0.50 0.52 0.55 0.60 0.59 0.55 0.56 0.60 0.62 0.65 0.68 0.70 0.74 0.82 0.83 0.87 0.95
0.71 0.64 0.41 0.34 0.39 0.41 0.35 0.33 0.31 0.33 0.32 0.33 0.31 0.27 0.25 0.23 0.21 0.21 0.19 0.20 0.21 0.23 0.26 0.27 0.30 0.34 0.41 0.44 0.47 0.50 0.54 0.56 0.56 0.58 0.58 0.62 0.68 0.71 0.73 0.74 0.81 0.85 0.85 0.89
0.45 0.37 0.34 0.34 0.32 0.30 0.27 0.27 0.26 0.27 0.31 0.31 0.29 0.25 0.22 0.19 0.19 0.18 0.17 0.19 0.22 0.22 0.23 0.26 0.27 0.29 0.34 0.37 0.40 0.46 0.53 0.54 0.55 0.58 0.60 0.63 0.66 0.70 0.75 0.80 0.87 0.90 0.87 0.85
0.32 0.24 0.24 0.27 0.28 0.25 0.21 0.17 0.17 0.16 0.18 0.22 0.22 0.22 0.21 0.20 0.20 0.20 0.21 0.20 0.20 0.22 0.24 0.25 0.26 0.28 0.30 0.31 0.36 0.42 0.45 0.50 0.55 0.57 0.58 0.61 0.62 0.65 0.69 0.72 0.90 1.09 0.99 0.95
0.29 0.20 0.20 0.21 0.19 0.17 0.16 0.15 0.16 0.17 0.15 0.15 0.17 0.19 0.19 0.21 0.22 0.23 0.24 0.22 0.21 0.20 0.20 0.22 0.23 0.26 0.28 0.28 0.30 0.36 0.41 0.45 0.51 0.56 0.58 0.58 0.59 0.65 0.68 0.69 0.73 0.75 0.79 0.89
0.17 0.14 0.13 0.13 0.11 0.11 0.13 0.14 0.15 0.15 0.15 0.15 0.15 0.17 0.18 0.19 0.20 0.20 0.21 0.21 0.21 0.20 0.19 0.20 0.21 0.24 0.29 0.30 0.29 0.33 0.40 0.45 0.48 0.51 0.56 0.59 0.60 0.65 0.68 0.67 0.65 0.63 0.65 0.73
0.11 0.12 0.14 0.12 0.11 0.11 0.12 0.13 0.13 0.13 0.13 0.13 0.14 0.15 0.16 0.17 0.17 0.18 0.19 0.20 0.19 0.18 0.17 0.18 0.19 0.22 0.27 0.29 0.30 0.32 0.38 0.45 0.49 0.50 0.55 0.58 0.60 0.63 0.66 0.70 0.70 0.64 0.63 0.69
0.11 0.12 0.13 0.11 0.10 0.11 0.11 0.11 0.12 0.12 0.11 0.10 0.11 0.12 0.15 0.16 0.17 0.18 0.18 0.17 0.15 0.15 0.16 0.17 0.18 0.21 0.23 0.25 0.27 0.31 0.37 0.44 0.51 0.54 0.56 0.58 0.59 0.60 0.64 0.64 0.64 0.63 0.65 0.73
0.12 0.12 0.11 0.11 0.11 0.10 0.11 0.12 0.13 0.12 0.10 0.10 0.11 0.13 0.15 0.16 0.17 0.18 0.16 0.15 0.14 0.14 0.16 0.18 0.19 0.21 0.22 0.25 0.28 0.31 0.35 0.47 0.56 0.59 0.59 0.61 0.62 0.63 0.65 0.65 0.63 0.62 0.67 0.74
0.15 0.13 0.11 0.10 0.10 0.10 0.11 0.12 0.13 0.13 0.11 0.11 0.13 0.14 0.16 0.16 0.16 0.17 0.16 0.16 0.15 0.15 0.17 0.18 0.21 0.22 0.23 0.25 0.29 0.32 0.37 0.44 0.54 0.58 0.60 0.62 0.68 0.69 0.69 0.71 0.71 0.68 0.66 0.69
0.16 0.16 0.15 0.15 0.14 0.14 0.13 0.12 0.13 0.13 0.13 0.13 0.14 0.16 0.18 0.18 0.18 0.18 0.18 0.17 0.17 0.16 0.18 0.19 0.22 0.24 0.24 0.27 0.31 0.34 0.39 0.45 0.52 0.60 0.62 0.64 0.71 0.73 0.73 0.73 0.72 0.71 0.67 0.68
0.14 0.15 0.15 0.15 0.17 0.18 0.16 0.13 0.13 0.14 0.14 0.15 0.16 0.19 0.20 0.21 0.21 0.21 0.19 0.18 0.17 0.18 0.19 0.20 0.24 0.23 0.24 0.28 0.37 0.40 0.46 0.52 0.57 0.58 0.59 0.68 0.72 0.70 0.72 0.73 0.74 0.73 0.70 0.70
0.15 0.15 0.16 0.17 0.18 0.19 0.17 0.15 0.14 0.15 0.16 0.17 0.18 0.20 0.22 0.23 0.23 0.23 0.22 0.21 0.21 0.21 0.20 0.23 0.24 0.24 0.27 0.34 0.45 0.51 0.53 0.56 0.61 0.62 0.62 0.66 0.72 0.74 0.74 0.76 0.77 0.77 0.73 0.73
0.18 0.18 0.18 0.19 0.18 0.17 0.18 0.18 0.18 0.18 0.18 0.18 0.20 0.23 0.24 0.25 0.24 0.24 0.23 0.23 0.24 0.24 0.24 0.24 0.24 0.31 0.39 0.49 0.54 0.53 0.54 0.60 0.66 0.70 0.70 0.71 0.75 0.76 0.77 0.79 0.81 0.83 0.83 0.81
0.20 0.20 0.21 0.21 0.19 0.18 0.17 0.17 0.18 0.19 0.19 0.20 0.22 0.24 0.25 0.26 0.25 0.25 0.24 0.24 0.26 0.30 0.29 0.27 0.30 0.42 0.51 0.57 0.53 0.53 0.57 0.63 0.69 0.73 0.76 0.75 0.80 0.83 0.82 0.83 0.88 0.88 0.88 0.87
0.23 0.24 0.23 0.23 0.21 0.20 0.18 0.17 0.18 0.19 0.21 0.22 0.24 0.26 0.27 0.28 0.28 0.28 0.30 0.27 0.28 0.33 0.33 0.33 0.42 0.50 0.55 0.54 0.50 0.53 0.59 0.65 0.72 0.78 0.82 0.83 0.85 0.88 0.91 0.91 0.93 0.93 0.93 0.91
0.25 0.24 0.24 0.23 0.22 0.21 0.20 0.20 0.20 0.21 0.21 0.22 0.24 0.26 0.28 0.29 0.27 0.27 0.30 0.33 0.35 0.38 0.38 0.43 0.49 0.53 0.55 0.53 0.53 0.58 0.65 0.74 0.81 0.88 0.91 0.92 0.91 0.92 0.96 0.99 1.00 0.96 0.94 0.93
0.29 0.28 0.25 0.25 0.25 0.25 0.25 0.24 0.22 0.21 0.21 0.22 0.23 0.25 0.28 0.31 0.34 0.33 0.34 0.38 0.41 0.43 0.45 0.48 0.50 0.53 0.52 0.55 0.61 0.69 0.76 0.85 0.97 1.04 1.04 1.01 0.97 0.97 0.99 1.02 1.03 1.01 0.98 0.95
0.32 0.32 0.30 0.30 0.30 0.30 0.29 0.28 0.27 0.26 0.26 0.27 0.28 0.29 0.31 0.35 0.37 0.38 0.39 0.43 0.45 0.46 0.47 0.50 0.53 0.57 0.61 0.66 0.72 0.77 0.81 0.85 0.92 0.99 1.00 1.00 0.99 1.00 1.02 1.05 1.04 1.02 0.99 0.96
0.34 0.33 0.31 0.30 0.31 0.33 0.33 0.33 0.34 0.35 0.35 0.36 0.38 0.38 0.38 0.40 0.42 0.43 0.44 0.47 0.50 0.52 0.53 0.56 0.59 0.63 0.68 0.75 0.79 0.82 0.85 0.86 0.91 1.00 1.04 1.03 1.02 1.04 1.05 1.05 1.05 1.03 1.00 0.97